This demonstration page uses our WeatherBlox Daily Observations layout. Learn more.

Left ArrowRight Arrow

Hourly Observations for November 9, 2016

Temp ( °F °C ) Dew Point ( °F °C ) Humidity (%) Winds ( mph kmh ) Pressure ( in mb ) Visibility ( mi km ) Precip ( " mm )
12:53 am 00:53 Partly Cloudy 51 10.6 41 5 69 69 Calm 30.14 1021 10 16 0.00 0.00
1:53 am 01:53 Cloudy 51 10.6 42 5.6 71 71 Calm 30.12 1020 10 16 0.00 0.00
2:53 am 02:53 Mostly Cloudy 50 10 41 5 71 71 SW 3 6 30.11 1020 10 16 0.00 0.00
3:53 am 03:53 Mostly Cloudy 50 10 41 5 71 71 Calm 30.10 1019 10 16 0.00 0.00
4:53 am 04:53 Mostly Cloudy 50 10 42 5.6 74 74 Calm 30.09 1019 10 16 0.00 0.00
5:53 am 05:53 Clear 49 9.4 42 5.6 77 77 Calm 30.09 1019 10 16 0.00 0.00
6:53 am 06:53 Clear 47 8.3 42 5.6 83 83 Calm 30.10 1019 10 16 0.00 0.00
7:53 am 07:53 Sunny 54 12.2 39 3.9 57 57 NW 3 6 30.11 1020 10 16 0.00 0.00
8:53 am 08:53 Sunny 57 13.9 39 3.9 51 51 NW 8 13 30.12 1020 10 16 0.00 0.00
9:53 am 09:53 Sunny 61 16.1 44 6.7 54 54 NW 13 20 30.13 1020 10 16 0.00 0.00
10:53 am 10:53 Sunny 64 17.8 47 8.3 54 54 NW 13 20 30.12 1020 10 16 0.00 0.00
11:53 am 11:53 Sunny 64 17.8 47 8.3 54 54 NNW 14 22 30.10 1019 10 16 0.00 0.00
12:53 pm 12:53 Sunny 67 19.4 45 7.2 45 45 NW 14 22 30.07 1018 10 16 0.00 0.00
1:53 pm 13:53 Sunny 68 20 42 5.6 39 39 N 12 19 30.06 1018 10 16 0.00 0.00
2:53 pm 14:53 Sunny with Light Rain 68 20 40 4.4 36 36 NW 15 24 30.05 1018 10 16 0.00 0.03
3:53 pm 15:53 Sunny 67 19.4 37 2.8 33 33 NW 15 24 30.06 1018 10 16 0.00 0.03
4:53 pm 16:53 Sunny 65 18.3 37 2.8 36 36 NNW 10 17 30.06 1018 10 16 0.00 0.03
5:53 pm 17:53 Clear 62 16.7 36 2.2 38 38 NNW 6 9 30.11 1020 10 16 0.00 0.00
6:53 pm 18:53 Clear 60 15.6 36 2.2 41 41 N 9 15 30.12 1020 10 16 0.00 0.00
7:53 pm 19:53 Clear 58 14.4 35 1.7 42 42 NNW 6 9 30.14 1021 10 16 0.00 0.00
8:53 pm 20:53 Clear 56 13.3 34 1.1 44 44 N 6 9 30.16 1022 10 16 0.00 0.00
9:53 pm 21:53 Clear 54 12.2 35 1.7 49 49 NW 5 7 30.18 1022 10 16 0.00 0.00
10:36 pm 22:36 Mostly Cloudy 53 11.7 35 1.7 51 51 N 5 7 30.21 1023 10 16 0.00 0.00
10:53 pm 22:53 Mostly Cloudy 52 11.1 35 1.7 53 53 N 3 6 30.18 1022 10 16 0.00 0.00
11:03 pm 23:03 Partly Cloudy 54 12 36 2 51 51 N 3 6 30.21 1023 10 16 0.00 0.00
11:53 pm 23:53 Clear 50 10 35 1.7 57 57 NNW 5 7 30.18 1022 10 16 0.00 0.00

Powered by AerisWeather